Volver al catálogo

ARIANE 44L+ DEB

ActivoGTO
NORAD 23242·DEBRIS·🇫🇷 France

Lanzado Apr 15, 1992 desde Guiana Space Centre

Loading…

TLE

EnvejeciendoSource: Space-Track

Época: Sep 14, 2026, 19:18 UTC

1 23242U 92021M   26257.80422106 -.00000041  00000-0  98163-2 0  9997
2 23242   3.8783 302.2117 7039859 245.2007 150.1774  2.24660153119028

Sigue ARIANE 44L+ DEB en tiempo real con AllMySat

Download on the App Store